owner,sensor,date,latitude,longitude,vertical_datum,wind_speed,wind_to_direction,wind_speed_of_gust,qcFlag 
LUMCON,ioos:station:LUMCON:105:1,2009-06-01T17:00:00Z,29.1874,-90.6654,1.0,2.1,110.0,5.7,'11111222,11111222,11111222' 
LUMCON,ioos:station:LUMCON:105:1,2009-06-01T18:00:00Z,29.1874,-90.6654,1.0,2.1,110.0,6.2,'11111222,11111222,11111222' 
LUMCON,ioos:station:LUMCON:105:1,2009-06-01T19:00:00Z,29.1874,-90.6654,1.0,2.1,120.0,6.2,'11111222,11111222,11111222' 
LUMCON,ioos:station:LUMCON:105:1,2009-06-01T20:00:00Z,29.1874,-90.6654,1.0,2.6,150.0,7.2,'11111222,11111222,11111222' 
LUMCON,ioos:station:LUMCON:105:1,2009-06-01T21:00:00Z,29.1874,-90.6654,1.0,3.6,130.0,7.7,'11111222,11111222,11111222' 
LUMCON,ioos:station:LUMCON:105:1,2009-06-01T22:00:00Z,29.1874,-90.6654,1.0,2.6,150.0,6.2,'11111222,11111222,11111222' 
LUMCON,ioos:station:LUMCON:105:1,2009-06-01T23:00:00Z,29.1874,-90.6654,1.0,2.6,150.0,6.2,'11111222,11111222,11111222' 
LUMCON,ioos:station:LUMCON:105:1,2009-06-02T00:00:00Z,29.1874,-90.6654,1.0,2.6,160.0,7.2,'11111222,11111222,11111222' 
LUMCON,ioos:station:LUMCON:105:1,2009-06-02T01:00:00Z,29.1874,-90.6654,1.0,3.1,150.0,6.7,'11111222,11111222,11111222' 
LUMCON,ioos:station:LUMCON:105:1,2009-06-02T02:00:00Z,29.1874,-90.6654,1.0,3.1,150.0,7.7,'11111222,11111222,11111222' 
LUMCON,ioos:station:LUMCON:105:1,2009-06-02T03:00:00Z,29.1874,-90.6654,1.0,3.1,140.0,7.2,'11111222,11111222,11111222' 
LUMCON,ioos:station:LUMCON:105:1,2009-06-02T04:00:00Z,29.1874,-90.6654,1.0,3.1,130.0,7.7,'11111222,11111222,11111222' 
LUMCON,ioos:station:LUMCON:105:1,2009-06-02T05:00:00Z,29.1874,-90.6654,1.0,3.6,130.0,8.8,'11111222,11111222,11111222' 
LUMCON,ioos:station:LUMCON:105:1,2009-06-02T06:00:00Z,29.1874,-90.6654,1.0,3.6,140.0,8.8,'11111222,11111222,11111222' 
LUMCON,ioos:station:LUMCON:105:1,2009-06-02T07:00:00Z,29.1874,-90.6654,1.0,3.6,150.0,8.8,'11111222,11111222,11111222' 
LUMCON,ioos:station:LUMCON:105:1,2009-06-02T08:00:00Z,29.1874,-90.6654,1.0,3.6,160.0,9.3,'11111222,11111222,11111222' 
LUMCON,ioos:station:LUMCON:105:1,2009-06-02T09:00:00Z,29.1874,-90.6654,1.0,3.6,170.0,8.2,'11111222,11111222,11111222' 
LUMCON,ioos:station:LUMCON:105:1,2009-06-02T10:00:00Z,29.1874,-90.6654,1.0,2.6,150.0,6.2,'11111222,11111222,11111222' 
LUMCON,ioos:station:LUMCON:105:1,2009-06-02T11:00:00Z,29.1874,-90.6654,1.0,2.6,150.0,6.7,'11111222,11111222,11111222' 
LUMCON,ioos:station:LUMCON:105:1,2009-06-02T12:00:00Z,29.1874,-90.6654,1.0,3.1,150.0,7.7,'11111222,11111222,11111222' 
LUMCON,ioos:station:LUMCON:105:1,2009-06-02T13:00:00Z,29.1874,-90.6654,1.0,3.6,130.0,7.7,'11111222,11111222,11111222' 
LUMCON,ioos:station:LUMCON:105:1,2009-06-02T14:00:00Z,29.1874,-90.6654,1.0,3.6,140.0,7.7,'11111222,11111222,11111222' 
LUMCON,ioos:station:LUMCON:105:1,2009-06-02T15:00:00Z,29.1874,-90.6654,1.0,3.1,140.0,7.2,'11111222,11111222,11111222' 
LUMCON,ioos:station:LUMCON:105:1,2009-06-02T16:00:00Z,29.1874,-90.6654,1.0,4.1,120.0,9.8,'11111222,11111222,11111222' 
LUMCON,ioos:station:LUMCON:105:1,2009-06-03T19:00:00Z,29.1874,-90.6654,1.0,3.6,140.0,5.1,'11111222,11111222,11111222' 
LUMCON,ioos:station:LUMCON:105:1,2009-06-03T20:00:00Z,29.1874,-90.6654,1.0,3.1,130.0,4.1,'11111222,11111222,11111222' 
LUMCON,ioos:station:LUMCON:105:1,2009-06-03T21:00:00Z,29.1874,-90.6654,1.0,3.6,170.0,5.1,'11111222,11111222,11111222' 
LUMCON,ioos:station:LUMCON:105:1,2009-06-03T22:00:00Z,29.1874,-90.6654,1.0,3.6,170.0,5.7,'11111222,11111222,11111222' 
LUMCON,ioos:station:LUMCON:105:1,2009-06-03T23:00:00Z,29.1874,-90.6654,1.0,2.1,180.0,4.6,'11111222,11111222,11111222' 
LUMCON,ioos:station:LUMCON:105:1,2009-06-04T00:00:00Z,29.1874,-90.6654,1.0,2.6,220.0,4.1,'11111222,11111222,11111222' 
LUMCON,ioos:station:LUMCON:105:1,2009-06-04T01:00:00Z,29.1874,-90.6654,1.0,3.1,240.0,4.6,'11111222,11111222,11111222' 
LUMCON,ioos:station:LUMCON:105:1,2009-06-04T02:00:00Z,29.1874,-90.6654,1.0,2.1,260.0,3.1,'11111222,11111222,11111222' 
LUMCON,ioos:station:LUMCON:105:1,2009-06-04T03:00:00Z,29.1874,-90.6654,1.0,1.0,260.0,2.1,'11111222,11111222,11111222' 
LUMCON,ioos:station:LUMCON:105:1,2009-06-04T04:00:00Z,29.1874,-90.6654,1.0,1.0,270.0,2.1,'11111222,11111222,11111222' 
LUMCON,ioos:station:LUMCON:105:1,2009-06-04T05:00:00Z,29.1874,-90.6654,1.0,2.1,270.0,3.1,'11111222,11111222,11111222' 
LUMCON,ioos:station:LUMCON:105:1,2009-06-04T06:00:00Z,29.1874,-90.6654,1.0,2.1,250.0,2.6,'11111222,11111222,11111222' 
LUMCON,ioos:station:LUMCON:105:1,2009-06-04T07:00:00Z,29.1874,-90.6654,1.0,2.1,250.0,3.1,'11111222,11111222,11111222' 
LUMCON,ioos:station:LUMCON:105:1,2009-06-04T08:00:00Z,29.1874,-90.6654,1.0,1.5,230.0,2.1,'11111222,11111222,11111222' 
LUMCON,ioos:station:LUMCON:105:1,2009-06-04T09:00:00Z,29.1874,-90.6654,1.0,4.1,230.0,7.2,'11111222,11111222,11111222' 
LUMCON,ioos:station:LUMCON:105:1,2009-06-04T10:00:00Z,29.1874,-90.6654,1.0,4.6,250.0,7.2,'11111222,11111222,11111222' 
LUMCON,ioos:station:LUMCON:105:1,2009-06-04T11:00:00Z,29.1874,-90.6654,1.0,5.7,260.0,8.2,'11111222,11111222,11111222' 
LUMCON,ioos:station:LUMCON:105:1,2009-06-04T12:00:00Z,29.1874,-90.6654,1.0,4.1,270.0,6.7,'11111222,11111222,11111222' 
LUMCON,ioos:station:LUMCON:105:1,2009-06-04T13:00:00Z,29.1874,-90.6654,1.0,4.1,260.0,7.2,'11111222,11111222,11111222' 
LUMCON,ioos:station:LUMCON:105:1,2009-06-04T14:00:00Z,29.1874,-90.6654,1.0,6.2,250.0,9.8,'11111222,11111222,11111222' 
LUMCON,ioos:station:LUMCON:105:1,2009-06-04T15:00:00Z,29.1874,-90.6654,1.0,4.1,250.0,5.7,'11111222,11111222,11111222' 
LUMCON,ioos:station:LUMCON:105:1,2009-06-04T16:00:00Z,29.1874,-90.6654,1.0,4.1,270.0,6.2,'11111222,11111222,11111222' 
LUMCON,ioos:station:LUMCON:105:1,2009-06-04T17:00:00Z,29.1874,-90.6654,1.0,5.7,260.0,7.7,'11111222,11111222,11111222' 
LUMCON,ioos:station:LUMCON:105:1,2009-06-04T18:00:00Z,29.1874,-90.6654,1.0,5.7,260.0,7.7,'11111222,11111222,11111222' 
LUMCON,ioos:station:LUMCON:105:1,2009-06-04T19:00:00Z,29.1874,-90.6654,1.0,5.7,260.0,7.7,'11111222,11111222,11111222' 
LUMCON,ioos:station:LUMCON:105:1,2009-06-04T20:00:00Z,29.1874,-90.6654,1.0,6.2,260.0,8.2,'11111222,11111222,11111222' 
LUMCON,ioos:station:LUMCON:105:1,2009-06-04T21:00:00Z,29.1874,-90.6654,1.0,6.7,250.0,9.8,'11111222,11111222,11111222' 
LUMCON,ioos:station:LUMCON:105:1,2009-06-04T22:00:00Z,29.1874,-90.6654,1.0,5.7,260.0,8.8,'11111222,11111222,11111222' 
LUMCON,ioos:station:LUMCON:105:1,2009-06-04T23:00:00Z,29.1874,-90.6654,1.0,5.7,270.0,8.2,'11111222,11111222,11111222' 
LUMCON,ioos:station:LUMCON:105:1,2009-06-05T00:00:00Z,29.1874,-90.6654,1.0,5.7,280.0,8.2,'11111222,11111222,11111222' 
LUMCON,ioos:station:LUMCON:105:1,2009-06-05T01:00:00Z,29.1874,-90.6654,1.0,5.7,280.0,7.7,'11111222,11111222,11111222' 
LUMCON,ioos:station:LUMCON:105:1,2009-06-05T02:00:00Z,29.1874,-90.6654,1.0,6.2,280.0,8.8,'11111222,11111222,11111222' 
LUMCON,ioos:station:LUMCON:105:1,2009-06-05T03:00:00Z,29.1874,-90.6654,1.0,3.6,300.0,5.7,'11111222,11111222,11111222' 
LUMCON,ioos:station:LUMCON:105:1,2009-06-05T04:00:00Z,29.1874,-90.6654,1.0,2.6,330.0,5.7,'11111222,11111222,11111222' 
LUMCON,ioos:station:LUMCON:105:1,2009-06-05T05:00:00Z,29.1874,-90.6654,1.0,3.1,350.0,7.2,'11111222,11111222,11111222' 
LUMCON,ioos:station:LUMCON:105:1,2009-06-05T06:00:00Z,29.1874,-90.6654,1.0,3.1,310.0,6.7,'11111222,11111222,11111222' 
LUMCON,ioos:station:LUMCON:105:1,2009-06-05T07:00:00Z,29.1874,-90.6654,1.0,3.1,350.0,7.2,'11111222,11111222,11111222' 
LUMCON,ioos:station:LUMCON:105:1,2009-06-05T08:00:00Z,29.1874,-90.6654,1.0,3.1,350.0,7.2,'11111222,11111222,11111222' 
LUMCON,ioos:station:LUMCON:105:1,2009-06-05T09:00:00Z,29.1874,-90.6654,1.0,3.1,330.0,7.7,'11111222,11111222,11111222' 
LUMCON,ioos:station:LUMCON:105:1,2009-06-05T10:00:00Z,29.1874,-90.6654,1.0,3.6,350.0,8.2,'11111222,11111222,11111222' 
LUMCON,ioos:station:LUMCON:105:1,2009-06-05T11:00:00Z,29.1874,-90.6654,1.0,4.6,0.0,8.8,'11111222,11111222,11111222' 
LUMCON,ioos:station:LUMCON:105:1,2009-06-05T12:00:00Z,29.1874,-90.6654,1.0,3.6,10.0,8.2,'11111222,11111222,11111222' 
LUMCON,ioos:station:LUMCON:105:1,2009-06-05T13:00:00Z,29.1874,-90.6654,1.0,3.1,20.0,7.7,'11111222,11111222,11111222' 
LUMCON,ioos:station:LUMCON:105:1,2009-06-05T14:00:00Z,29.1874,-90.6654,1.0,3.6,10.0,8.8,'11111222,11111222,11111222' 
LUMCON,ioos:station:LUMCON:105:1,2009-06-05T15:00:00Z,29.1874,-90.6654,1.0,3.1,10.0,7.7,'11111222,11111222,11111222' 
LUMCON,ioos:station:LUMCON:105:1,2009-06-05T16:00:00Z,29.1874,-90.6654,1.0,2.6,10.0,6.7,'11111222,11111222,11111222' 
LUMCON,ioos:station:LUMCON:105:1,2009-06-05T17:00:00Z,29.1874,-90.6654,1.0,2.6,10.0,6.2,'11111222,11111222,11111222' 
LUMCON,ioos:station:LUMCON:105:1,2009-06-05T18:00:00Z,29.1874,-90.6654,1.0,2.6,340.0,6.2,'11111222,11111222,11111222' 
LUMCON,ioos:station:LUMCON:105:1,2009-06-05T19:00:00Z,29.1874,-90.6654,1.0,1.5,360.0,4.6,'11111222,11144222,11111222' 
LUMCON,ioos:station:LUMCON:105:1,2009-06-05T20:00:00Z,29.1874,-90.6654,1.0,1.0,350.0,2.6,'11111222,11111222,11111222' 
LUMCON,ioos:station:LUMCON:105:1,2009-06-05T21:00:00Z,29.1874,-90.6654,1.0,1.0,360.0,5.1,'11111222,11144222,11111222' 
LUMCON,ioos:station:LUMCON:105:1,2009-06-05T22:00:00Z,29.1874,-90.6654,1.0,1.5,330.0,4.6,'11111222,11111222,11111222' 
LUMCON,ioos:station:LUMCON:105:1,2009-06-05T23:00:00Z,29.1874,-90.6654,1.0,1.0,40.0,4.1,'11111222,11111222,11111222' 
LUMCON,ioos:station:LUMCON:105:1,2009-06-06T00:00:00Z,29.1874,-90.6654,1.0,1.5,50.0,4.6,'11111222,11111222,11111222' 
LUMCON,ioos:station:LUMCON:105:1,2009-06-06T01:00:00Z,29.1874,-90.6654,1.0,1.5,50.0,4.6,'11111222,11111222,11111222' 
LUMCON,ioos:station:LUMCON:105:1,2009-06-06T02:00:00Z,29.1874,-90.6654,1.0,1.5,50.0,4.1,'11111222,11111222,11111222' 
LUMCON,ioos:station:LUMCON:105:1,2009-06-06T03:00:00Z,29.1874,-90.6654,1.0,2.1,50.0,5.1,'11111222,11111222,11111222' 
LUMCON,ioos:station:LUMCON:105:1,2009-06-06T04:00:00Z,29.1874,-90.6654,1.0,2.1,60.0,4.1,'11111222,11111222,11111222' 
LUMCON,ioos:station:LUMCON:105:1,2009-06-06T05:00:00Z,29.1874,-90.6654,1.0,1.5,70.0,4.1,'11111222,11111222,11111222' 
LUMCON,ioos:station:LUMCON:105:1,2009-06-06T06:00:00Z,29.1874,-90.6654,1.0,2.6,60.0,6.2,'11111222,11111222,11111222' 
LUMCON,ioos:station:LUMCON:105:1,2009-06-06T07:00:00Z,29.1874,-90.6654,1.0,2.1,60.0,5.7,'11111222,11111222,11111222' 
LUMCON,ioos:station:LUMCON:105:1,2009-06-06T08:00:00Z,29.1874,-90.6654,1.0,2.1,50.0,4.6,'11111222,11111222,11111222' 
LUMCON,ioos:station:LUMCON:105:1,2009-06-06T09:00:00Z,29.1874,-90.6654,1.0,2.1,40.0,5.1,'11111222,11111222,11111222' 
LUMCON,ioos:station:LUMCON:105:1,2009-06-06T10:00:00Z,29.1874,-90.6654,1.0,2.6,40.0,6.2,'11111222,11111222,11111222' 
LUMCON,ioos:station:LUMCON:105:1,2009-06-06T11:00:00Z,29.1874,-90.6654,1.0,1.5,30.0,4.6,'11111222,11111222,11111222' 
LUMCON,ioos:station:LUMCON:105:1,2009-06-06T12:00:00Z,29.1874,-90.6654,1.0,1.5,20.0,3.6,'11111222,11111222,11111222' 
LUMCON,ioos:station:LUMCON:105:1,2009-06-06T13:00:00Z,29.1874,-90.6654,1.0,1.5,30.0,4.1,'11111222,11111222,11111222' 
LUMCON,ioos:station:LUMCON:105:1,2009-06-06T14:00:00Z,29.1874,-90.6654,1.0,2.1,60.0,4.6,'11111222,11111222,11111222' 
LUMCON,ioos:station:LUMCON:105:1,2009-06-06T15:00:00Z,29.1874,-90.6654,1.0,1.5,60.0,4.1,'11111222,11111222,11111222' 
LUMCON,ioos:station:LUMCON:105:1,2009-06-06T16:00:00Z,29.1874,-90.6654,1.0,1.5,90.0,3.6,'11111222,11111222,11111222' 
LUMCON,ioos:station:LUMCON:105:1,2009-06-06T17:00:00Z,29.1874,-90.6654,1.0,0.5,140.0,2.1,'11111222,11111222,11111222' 
LUMCON,ioos:station:LUMCON:105:1,2009-06-06T18:00:00Z,29.1874,-90.6654,1.0,0.5,170.0,1.5,'11111222,11111222,11111222' 
LUMCON,ioos:station:LUMCON:105:1,2009-06-06T19:00:00Z,29.1874,-90.6654,1.0,1.0,160.0,3.1,'11111222,11111222,11111222' 
LUMCON,ioos:station:LUMCON:105:1,2009-06-06T20:00:00Z,29.1874,-90.6654,1.0,1.0,160.0,3.1,'11111222,11111222,11111222' 
LUMCON,ioos:station:LUMCON:105:1,2009-06-06T21:00:00Z,29.1874,-90.6654,1.0,1.5,170.0,4.1,'11111222,11111222,11111222' 
LUMCON,ioos:station:LUMCON:105:1,2009-06-06T22:00:00Z,29.1874,-90.6654,1.0,1.5,200.0,4.1,'11111222,11111222,11111222' 
LUMCON,ioos:station:LUMCON:105:1,2009-06-06T23:00:00Z,29.1874,-90.6654,1.0,1.5,200.0,5.1,'11111222,11111222,11111222' 
LUMCON,ioos:station:LUMCON:105:1,2009-06-07T00:00:00Z,29.1874,-90.6654,1.0,2.1,200.0,5.1,'11111222,11111222,11111222' 
LUMCON,ioos:station:LUMCON:105:1,2009-06-07T01:00:00Z,29.1874,-90.6654,1.0,2.6,220.0,4.1,'11111222,11111222,11111222' 
LUMCON,ioos:station:LUMCON:105:1,2009-06-07T02:00:00Z,29.1874,-90.6654,1.0,1.5,230.0,2.6,'11111222,11111222,11111222' 
LUMCON,ioos:station:LUMCON:105:1,2009-06-07T03:00:00Z,29.1874,-90.6654,1.0,1.5,160.0,3.6,'11111222,11111222,11111222' 
LUMCON,ioos:station:LUMCON:105:1,2009-06-07T04:00:00Z,29.1874,-90.6654,1.0,2.1,140.0,4.1,'11111222,11111222,11111222' 
LUMCON,ioos:station:LUMCON:105:1,2009-06-07T05:00:00Z,29.1874,-90.6654,1.0,2.6,150.0,5.1,'11111222,11111222,11111222' 
LUMCON,ioos:station:LUMCON:105:1,2009-06-07T06:00:00Z,29.1874,-90.6654,1.0,2.1,190.0,3.6,'11111222,11111222,11111222' 
LUMCON,ioos:station:LUMCON:105:1,2009-06-07T07:00:00Z,29.1874,-90.6654,1.0,1.5,190.0,4.6,'11111222,11111222,11111222' 
LUMCON,ioos:station:LUMCON:105:1,2009-06-07T08:00:00Z,29.1874,-90.6654,1.0,3.1,180.0,4.6,'11111222,11111222,11111222' 
LUMCON,ioos:station:LUMCON:105:1,2009-06-07T09:00:00Z,29.1874,-90.6654,1.0,3.6,170.0,6.2,'11111222,11111222,11111222' 
LUMCON,ioos:station:LUMCON:105:1,2009-06-07T10:00:00Z,29.1874,-90.6654,1.0,2.1,170.0,5.7,'11111222,11111222,11111222' 
LUMCON,ioos:station:LUMCON:105:1,2009-06-07T11:00:00Z,29.1874,-90.6654,1.0,3.6,170.0,5.7,'11111222,11111222,11111222' 
LUMCON,ioos:station:LUMCON:105:1,2009-06-07T12:00:00Z,29.1874,-90.6654,1.0,2.1,170.0,4.6,'11111222,11111222,11111222' 
LUMCON,ioos:station:LUMCON:105:1,2009-06-07T13:00:00Z,29.1874,-90.6654,1.0,2.1,160.0,5.7,'11111222,11111222,11111222' 
LUMCON,ioos:station:LUMCON:105:1,2009-06-07T14:00:00Z,29.1874,-90.6654,1.0,2.1,170.0,5.1,'11111222,11111222,11111222' 
LUMCON,ioos:station:LUMCON:105:1,2009-06-07T15:00:00Z,29.1874,-90.6654,1.0,2.1,160.0,5.1,'11111222,11111222,11111222' 
LUMCON,ioos:station:LUMCON:105:1,2009-06-07T16:00:00Z,29.1874,-90.6654,1.0,2.6,150.0,5.7,'11111222,11111222,11111222' 
LUMCON,ioos:station:LUMCON:105:1,2009-06-07T17:00:00Z,29.1874,-90.6654,1.0,2.6,150.0,5.7,'11111222,11111222,11111222' 
LUMCON,ioos:station:LUMCON:105:1,2009-06-07T18:00:00Z,29.1874,-90.6654,1.0,2.1,160.0,5.1,'11111222,11111222,11111222' 
LUMCON,ioos:station:LUMCON:105:1,2009-06-07T19:00:00Z,29.1874,-90.6654,1.0,2.6,160.0,5.1,'11111222,11111222,11111222' 
LUMCON,ioos:station:LUMCON:105:1,2009-06-07T20:00:00Z,29.1874,-90.6654,1.0,1.5,160.0,4.6,'11111222,11111222,11111222' 
LUMCON,ioos:station:LUMCON:105:1,2009-06-07T21:00:00Z,29.1874,-90.6654,1.0,1.5,150.0,4.6,'11111222,11111222,11111222' 
LUMCON,ioos:station:LUMCON:105:1,2009-06-07T22:00:00Z,29.1874,-90.6654,1.0,1.5,170.0,4.1,'11111222,11111222,11111222' 
LUMCON,ioos:station:LUMCON:105:1,2009-06-07T23:00:00Z,29.1874,-90.6654,1.0,2.1,160.0,5.7,'11111222,11111222,11111222' 
LUMCON,ioos:station:LUMCON:105:1,2009-06-08T00:00:00Z,29.1874,-90.6654,1.0,1.5,170.0,4.6,'11111222,11111222,11111222' 
LUMCON,ioos:station:LUMCON:105:1,2009-06-08T01:00:00Z,29.1874,-90.6654,1.0,3.6,180.0,5.7,'11111222,11111222,11111222' 
LUMCON,ioos:station:LUMCON:105:1,2009-06-08T02:00:00Z,29.1874,-90.6654,1.0,3.6,170.0,5.7,'11111222,11111222,11111222' 
LUMCON,ioos:station:LUMCON:105:1,2009-06-08T03:00:00Z,29.1874,-90.6654,1.0,3.6,160.0,6.7,'11111222,11111222,11111222' 
LUMCON,ioos:station:LUMCON:105:1,2009-06-08T04:00:00Z,29.1874,-90.6654,1.0,2.6,140.0,6.2,'11111222,11111222,11111222' 
LUMCON,ioos:station:LUMCON:105:1,2009-06-08T05:00:00Z,29.1874,-90.6654,1.0,4.1,140.0,5.7,'11111222,11111222,11111222' 
LUMCON,ioos:station:LUMCON:105:1,2009-06-08T06:00:00Z,29.1874,-90.6654,1.0,5.1,150.0,7.2,'11111222,11111222,11111222' 
LUMCON,ioos:station:LUMCON:105:1,2009-06-08T07:00:00Z,29.1874,-90.6654,1.0,3.6,160.0,7.7,'11111222,11111222,11111222' 
LUMCON,ioos:station:LUMCON:105:1,2009-06-08T08:00:00Z,29.1874,-90.6654,1.0,4.1,170.0,6.2,'11111222,11111222,11111222' 
LUMCON,ioos:station:LUMCON:105:1,2009-06-08T09:00:00Z,29.1874,-90.6654,1.0,5.1,160.0,6.7,'11111222,11111222,11111222' 
LUMCON,ioos:station:LUMCON:105:1,2009-06-08T10:00:00Z,29.1874,-90.6654,1.0,4.6,170.0,6.7,'11111222,11111222,11111222' 
LUMCON,ioos:station:LUMCON:105:1,2009-06-08T11:00:00Z,29.1874,-90.6654,1.0,4.1,170.0,6.7,'11111222,11111222,11111222' 
LUMCON,ioos:station:LUMCON:105:1,2009-06-08T12:00:00Z,29.1874,-90.6654,1.0,2.6,180.0,6.2,'11111222,11111222,11111222' 
LUMCON,ioos:station:LUMCON:105:1,2009-06-08T13:00:00Z,29.1874,-90.6654,1.0,2.6,180.0,6.2,'11111222,11111222,11111222' 
LUMCON,ioos:station:LUMCON:105:1,2009-06-08T14:00:00Z,29.1874,-90.6654,1.0,2.6,170.0,6.2,'11111222,11111222,11111222' 
LUMCON,ioos:station:LUMCON:105:1,2009-06-08T15:00:00Z,29.1874,-90.6654,1.0,2.1,170.0,5.1,'11111222,11111222,11111222' 
LUMCON,ioos:station:LUMCON:105:1,2009-06-08T16:00:00Z,29.1874,-90.6654,1.0,2.1,160.0,5.1,'11111222,11111222,11111222' 
LUMCON,ioos:station:LUMCON:105:1,2009-06-08T17:00:00Z,29.1874,-90.6654,1.0,2.1,160.0,4.6,'11111222,11111222,11111222' 
LUMCON,ioos:station:LUMCON:105:1,2009-06-08T18:00:00Z,29.1874,-90.6654,1.0,2.1,160.0,5.7,'11111222,11111222,11111222' 
LUMCON,ioos:station:LUMCON:105:1,2009-06-08T19:00:00Z,29.1874,-90.6654,1.0,2.1,150.0,5.1,'11111222,11111222,11111222' 
LUMCON,ioos:station:LUMCON:105:1,2009-06-08T20:00:00Z,29.1874,-90.6654,1.0,2.1,150.0,5.1,'11111222,11111222,11111222' 
LUMCON,ioos:station:LUMCON:105:1,2009-06-08T21:00:00Z,29.1874,-90.6654,1.0,2.6,170.0,6.2,'11111222,11111222,11111222' 
LUMCON,ioos:station:LUMCON:105:1,2009-06-08T22:00:00Z,29.1874,-90.6654,1.0,2.1,170.0,5.1,'11111222,11111222,11111222' 
LUMCON,ioos:station:LUMCON:105:1,2009-06-08T23:00:00Z,29.1874,-90.6654,1.0,2.6,170.0,5.7,'11111222,11111222,11111222' 
LUMCON,ioos:station:LUMCON:105:1,2009-06-09T00:00:00Z,29.1874,-90.6654,1.0,2.6,170.0,6.2,'11111222,11111222,11111222' 
LUMCON,ioos:station:LUMCON:105:1,2009-06-09T01:00:00Z,29.1874,-90.6654,1.0,3.1,180.0,6.2,'11111222,11111222,11111222' 
LUMCON,ioos:station:LUMCON:105:1,2009-06-09T02:00:00Z,29.1874,-90.6654,1.0,3.1,180.0,7.2,'11111222,11111222,11111222' 
LUMCON,ioos:station:LUMCON:105:1,2009-06-09T03:00:00Z,29.1874,-90.6654,1.0,3.1,170.0,6.2,'11111222,11111222,11111222' 
LUMCON,ioos:station:LUMCON:105:1,2009-06-09T04:00:00Z,29.1874,-90.6654,1.0,3.6,170.0,6.7,'11111222,11111222,11111222' 
LUMCON,ioos:station:LUMCON:105:1,2009-06-09T05:00:00Z,29.1874,-90.6654,1.0,5.7,180.0,7.7,'11111222,11111222,11111222' 
LUMCON,ioos:station:LUMCON:105:1,2009-06-09T06:00:00Z,29.1874,-90.6654,1.0,4.6,180.0,6.7,'11111222,11111222,11111222' 
LUMCON,ioos:station:LUMCON:105:1,2009-06-09T07:00:00Z,29.1874,-90.6654,1.0,3.6,190.0,6.2,'11111222,11111222,11111222' 
LUMCON,ioos:station:LUMCON:105:1,2009-06-09T08:00:00Z,29.1874,-90.6654,1.0,4.1,190.0,6.2,'11111222,11111222,11111222' 
LUMCON,ioos:station:LUMCON:105:1,2009-06-09T09:00:00Z,29.1874,-90.6654,1.0,3.6,190.0,5.7,'11111222,11111222,11111222' 
LUMCON,ioos:station:LUMCON:105:1,2009-06-09T10:00:00Z,29.1874,-90.6654,1.0,3.6,180.0,5.7,'11111222,11111222,11111222' 
LUMCON,ioos:station:LUMCON:105:1,2009-06-09T11:00:00Z,29.1874,-90.6654,1.0,3.1,180.0,4.6,'11111222,11111222,11111222' 
LUMCON,ioos:station:LUMCON:105:1,2009-06-09T12:00:00Z,29.1874,-90.6654,1.0,2.6,180.0,5.7,'11111222,11111222,11111222' 
LUMCON,ioos:station:LUMCON:105:1,2009-06-09T13:00:00Z,29.1874,-90.6654,1.0,2.1,200.0,5.1,'11111222,11111222,11111222' 
LUMCON,ioos:station:LUMCON:105:1,2009-06-09T14:00:00Z,29.1874,-90.6654,1.0,1.5,190.0,4.1,'11111222,11111222,11111222' 
LUMCON,ioos:station:LUMCON:105:1,2009-06-09T15:00:00Z,29.1874,-90.6654,1.0,3.1,190.0,4.6,'11111222,11111222,11111222' 
LUMCON,ioos:station:LUMCON:105:1,2009-06-09T16:00:00Z,29.1874,-90.6654,1.0,3.6,190.0,4.6,'11111222,11111222,11111222' 
LUMCON,ioos:station:LUMCON:105:1,2009-06-09T17:00:00Z,29.1874,-90.6654,1.0,2.6,200.0,4.1,'11111222,11111222,11111222' 
LUMCON,ioos:station:LUMCON:105:1,2009-06-09T18:00:00Z,29.1874,-90.6654,1.0,3.1,200.0,4.6,'11111222,11111222,11111222' 
LUMCON,ioos:station:LUMCON:105:1,2009-06-09T19:00:00Z,29.1874,-90.6654,1.0,3.6,200.0,5.1,'11111222,11111222,11111222' 
LUMCON,ioos:station:LUMCON:105:1,2009-06-09T20:00:00Z,29.1874,-90.6654,1.0,4.1,210.0,6.2,'11111222,11111222,11111222' 
LUMCON,ioos:station:LUMCON:105:1,2009-06-09T21:00:00Z,29.1874,-90.6654,1.0,5.1,210.0,6.2,'11111222,11111222,11111222' 
LUMCON,ioos:station:LUMCON:105:1,2009-06-09T22:00:00Z,29.1874,-90.6654,1.0,4.6,220.0,6.7,'11111222,11111222,11111222' 
LUMCON,ioos:station:LUMCON:105:1,2009-06-09T23:00:00Z,29.1874,-90.6654,1.0,5.1,230.0,7.7,'11111222,11111222,11111222' 
LUMCON,ioos:station:LUMCON:105:1,2009-06-10T00:00:00Z,29.1874,-90.6654,1.0,4.1,220.0,5.1,'11111222,11111222,11111222' 
LUMCON,ioos:station:LUMCON:105:1,2009-06-10T01:00:00Z,29.1874,-90.6654,1.0,3.6,220.0,5.1,'11111222,11111222,11111222' 
LUMCON,ioos:station:LUMCON:105:1,2009-06-10T02:00:00Z,29.1874,-90.6654,1.0,3.6,210.0,5.1,'11111222,11111222,11111222' 
LUMCON,ioos:station:LUMCON:105:1,2009-06-10T03:00:00Z,29.1874,-90.6654,1.0,3.6,210.0,5.1,'11111222,11111222,11111222' 
LUMCON,ioos:station:LUMCON:105:1,2009-06-10T04:00:00Z,29.1874,-90.6654,1.0,4.1,200.0,5.7,'11111222,11111222,11111222' 
LUMCON,ioos:station:LUMCON:105:1,2009-06-10T05:00:00Z,29.1874,-90.6654,1.0,4.1,200.0,6.7,'11111222,11111222,11111222' 
LUMCON,ioos:station:LUMCON:105:1,2009-06-10T06:00:00Z,29.1874,-90.6654,1.0,4.1,200.0,5.7,'11111222,11111222,11111222' 
LUMCON,ioos:station:LUMCON:105:1,2009-06-10T07:00:00Z,29.1874,-90.6654,1.0,4.1,200.0,5.7,'11111222,11111222,11111222' 
LUMCON,ioos:station:LUMCON:105:1,2009-06-10T08:00:00Z,29.1874,-90.6654,1.0,4.1,210.0,6.7,'11111222,11111222,11111222' 
LUMCON,ioos:station:LUMCON:105:1,2009-06-10T09:00:00Z,29.1874,-90.6654,1.0,3.1,220.0,5.7,'11111222,11111222,11111222' 
LUMCON,ioos:station:LUMCON:105:1,2009-06-10T10:00:00Z,29.1874,-90.6654,1.0,3.1,230.0,5.1,'11111222,11111222,11111222' 
LUMCON,ioos:station:LUMCON:105:1,2009-06-10T11:00:00Z,29.1874,-90.6654,1.0,3.1,230.0,5.1,'11111222,11111222,11111222' 
LUMCON,ioos:station:LUMCON:105:1,2009-06-10T12:00:00Z,29.1874,-90.6654,1.0,4.1,240.0,5.7,'11111222,11111222,11111222' 
LUMCON,ioos:station:LUMCON:105:1,2009-06-10T13:00:00Z,29.1874,-90.6654,1.0,4.6,240.0,5.7,'11111222,11111222,11111222' 
LUMCON,ioos:station:LUMCON:105:1,2009-06-10T14:00:00Z,29.1874,-90.6654,1.0,4.1,230.0,5.1,'11111222,11111222,11111222' 
LUMCON,ioos:station:LUMCON:105:1,2009-06-10T15:00:00Z,29.1874,-90.6654,1.0,3.1,240.0,4.6,'11111222,11111222,11111222' 
LUMCON,ioos:station:LUMCON:105:1,2009-06-10T16:00:00Z,29.1874,-90.6654,1.0,3.1,220.0,4.6,'11111222,11111222,11111222' 
LUMCON,ioos:station:LUMCON:105:1,2009-06-10T17:00:00Z,29.1874,-90.6654,1.0,3.6,220.0,6.2,'11111222,11111222,11111222' 
LUMCON,ioos:station:LUMCON:105:1,2009-06-10T18:00:00Z,29.1874,-90.6654,1.0,4.1,230.0,6.2,'11111222,11111222,11111222' 
LUMCON,ioos:station:LUMCON:105:1,2009-06-10T19:00:00Z,29.1874,-90.6654,1.0,4.6,220.0,6.7,'11111222,11111222,11111222' 
LUMCON,ioos:station:LUMCON:105:1,2009-06-10T20:00:00Z,29.1874,-90.6654,1.0,4.1,230.0,6.2,'11111222,11111222,11111222' 
LUMCON,ioos:station:LUMCON:105:1,2009-06-10T21:00:00Z,29.1874,-90.6654,1.0,4.1,220.0,5.7,'11111222,11111222,11111222' 
LUMCON,ioos:station:LUMCON:105:1,2009-06-10T22:00:00Z,29.1874,-90.6654,1.0,4.1,200.0,5.7,'11111222,11111222,11111222' 
LUMCON,ioos:station:LUMCON:105:1,2009-06-10T23:00:00Z,29.1874,-90.6654,1.0,4.1,200.0,5.7,'11111222,11111222,11111222' 
LUMCON,ioos:station:LUMCON:105:1,2009-06-11T00:00:00Z,29.1874,-90.6654,1.0,4.6,200.0,6.2,'11111222,11111222,11111222' 
LUMCON,ioos:station:LUMCON:105:1,2009-06-11T01:00:00Z,29.1874,-90.6654,1.0,4.1,200.0,6.2,'11111222,11111222,11111222' 
LUMCON,ioos:station:LUMCON:105:1,2009-06-11T02:00:00Z,29.1874,-90.6654,1.0,4.6,210.0,7.2,'11111222,11111222,11111222' 